sat.trackr.live / text

‹ back to catalog

QUICK3

NORAD 64558 · 2025-135AG

PAYLOAD ACTIVE UNKNOWN

§ Identity

Operator
Country
GER
Launch date
2025-06-23
Launch site
AFWTR
Launch vehicle
Mass (kg)
RCS (m²)

External: N2YO · Heavens-Above · Gunter

§ Orbital elements

Epoch: 2026-05-25T01:06:24.704064Z

Period
94.32 min
Inclination
97.4713°
Eccentricity
0.0004243
Mean motion
15.26642230 rev/d
Perigee alt
482.9 km
Apogee alt
488.8 km
Semi-major
6,864.0 km
B*
4.4688e-4
RAAN
261.5192°
Arg perigee
229.1098°
Mean anomaly
130.9773°
Rev number
5,132

§ Raw data

QUICK31 64558U 25135AG  26145.04611926  .00011651  00000+0  44688-3 0  99972 64558  97.4713 261.5192 0004243 229.1098 130.9773 15.26642230 51323

JSON: /api/v1/satellites/64558 · /tle

For live sub-satellite position, see the globe view (requires WebGL).

§ Visibility from observer

Set your observer location to see the next 7 days of passes ≥ 10°. The values pass through the URL so the page stays shareable.

No JS? Fill the form by hand. The geolocation button needs JavaScript.

§ Radio — SatNOGS DB

ModeDescriptionDownlinkUplink
FM S-band telemetry 2.283 GHz
GFSK UHF Telemetry 401.050 MHz

2 transmitters · refreshed weekly from db.satnogs.org